sat.trackr.live / text

‹ back to catalog

QIANFAN-40

NORAD 62241 · 2024-232E

PAYLOAD ACTIVE UNKNOWN

§ Identity

Operator
Country
PRC
Launch date
2024-12-05
Launch site
TAISC
Launch vehicle
Mass (kg)
RCS (m²)

External: N2YO · Heavens-Above · Gunter

§ Orbital elements

Epoch: 2026-09-22T20:37:20.287776Z

Period
106.59 min
Inclination
89.0194°
Eccentricity
0.0015598
Mean motion
13.51029607 rev/d
Perigee alt
1,056.9 km
Apogee alt
1,080.1 km
Semi-major
7,446.6 km
B*
1.0547e-4
RAAN
12.4036°
Arg perigee
102.9021°
Mean anomaly
257.3874°
Rev number
13,795

§ Raw data

QIANFAN-401 62241U 24232E   26265.85926259  .00000080  00000+0  10547-3 0  99922 62241  89.0194  12.4036 0015598 102.9021 257.3874 13.51029607137952

JSON: /api/v1/satellites/62241 · /tle

For live sub-satellite position, see the globe view (requires WebGL).

§ Visibility from observer

Set your observer location to see the next 7 days of passes ≥ 10°. The values pass through the URL so the page stays shareable.

No JS? Fill the form by hand. The geolocation button needs JavaScript.